Regional Weather Roundup
Issued by NWS

Home | Current Version | Previous Version | Graphics & Text | Print | Product List | Glossary On
Versions: 1 2 3 4 5 6 7 8 9 10 11 12 13 14 15 16 17 18 19 20 21 22 23 24 25 26 27 28 29 30 31 32 33 34 35 36 37 38 39 40 41 42 43 44 45 46 47 48 49 50
000
ASUS45 KSLC 290810
RWRUT

UTAH REGIONAL WEATHER ROUNDUP
NATIONAL WEATHER SERVICE SALT LAKE CITY UT
200 AM MDT FRI AUG 29 2014

UTZ001>011-023>025-290900-

NORTHERN UTAH

CITY           SKY/WX    TMP DP  RH WIND       PRES   REMARKS
HILL AFB       CLEAR     63  44  48 E14       30.11S
LOGAN          CLEAR     59  50  72 VRB3      30.10R
OGDEN          CLEAR     63  44  50 S9        30.09S
PROVO AIRPORT  CLEAR     61  45  55 S3        30.13F
SALT LAKE CITY CLEAR     65  41  41 SE9       30.07F
VERNAL         MOCLDY    59  52  77 W3        30.16F
WENDOVER       CLEAR     64  39  39 NE3       30.06S
HEBER CITY     CLEAR     48  43  81 CALM      30.21S
WEST JORDAN    CLEAR     64  52  63 S7        30.11F

$$

UTZ012>022-026-027-290900-

SOUTHERN UTAH

CITY           SKY/WX    TMP DP  RH WIND       PRES   REMARKS
BRYCE CANYON   CLEAR     45  38  76 W10       30.34F
CEDAR CITY     CLEAR     61  36  39 CALM      30.18F
MILFORD        CLEAR     58  41  53 SW6       30.14S
MOAB/CYNLANDS  CLEAR     61  46  57 W5        30.10S
PRICE          CLEAR     57  42  57 CALM      30.20F
ST GEORGE      SUNNY     75  45  33 CALM      30.00S

$$

REGIONAL REPORTS     COLORADO/ARIZONA

CITY           SKY/WX    TMP DP  RH WIND       PRES   REMARKS
CRAIG, CO      PTCLDY    49  46  90 CALM      30.23S
GRAND JUNCTION PTCLDY    61  51  70 SE14      30.15S
RIFLE          CLEAR     54  49  83 CALM      30.21F
MONTROSE       CLEAR     57  46  66 SE9       30.24F
CORTEZ         CLEAR     49  45  86 CALM      30.21F
PAGE, AZ       CLEAR     71  41  33 CALM      30.09F
GRAND CANYON     N/A    N/A N/A N/A MISG        N/A
KINGMAN        CLEAR     66  34  30 S5        30.02F
FLAGSTAFF      CLEAR     47  41  80 CALM      30.29F

$$

REGIONAL REPORTS    NEVADA/IDAHO/WYOMING

CITY           SKY/WX    TMP DP  RH WIND       PRES   REMARKS
LAS VEGAS, NV  CLEAR     85  31  14 S10       29.86S
ELY            CLEAR     53  39  59 S12       30.22F
ELKO           PTCLDY    59  33  37 NE5       30.11R
POCATELLO, ID  PTCLDY    73  38  27 S14       30.05S
BURLEY         PTCLDY    61  46  57 SW10      30.03S
EVANSTON, WY   CLEAR     52  42  69 S8        30.26F
ROCK SPRINGS   CLEAR     57  42  57 SW14      30.22F

$$


USA.gov is the U.S. government's official web portal to all federal, state and local government web resources and services.